Year,Month,Day,Hour,Minute,Value (Times are PST for temperature in C)
2008,05,27,00,00,12.10
2008,05,27,00,01,12.00
2008,05,27,00,02,12.00
2008,05,27,00,03,11.90
2008,05,27,00,04,11.90
2008,05,27,00,05,11.90
2008,05,27,00,06,11.80
2008,05,27,00,07,11.80
2008,05,27,00,08,11.80
2008,05,27,00,09,11.80
2008,05,27,00,10,11.80
2008,05,27,00,11,11.70
2008,05,27,00,12,11.70
2008,05,27,00,13,11.60
2008,05,27,00,14,11.60
2008,05,27,00,15,11.60
2008,05,27,00,16,11.60
2008,05,27,00,17,11.60
2008,05,27,00,18,11.60
2008,05,27,00,19,11.50
2008,05,27,00,20,11.40
2008,05,27,00,21,11.40
2008,05,27,00,22,11.40
2008,05,27,00,23,11.40
2008,05,27,00,24,11.40
2008,05,27,00,25,11.30
2008,05,27,00,26,11.30
2008,05,27,00,27,11.30
2008,05,27,00,28,11.30
2008,05,27,00,29,11.20
2008,05,27,00,30,11.20
2008,05,27,00,31,11.20
2008,05,27,00,32,11.20
2008,05,27,00,33,11.10
2008,05,27,00,34,11.10
2008,05,27,00,35,11.10
2008,05,27,00,36,11.10
2008,05,27,00,37,11.10
2008,05,27,00,38,11.10
2008,05,27,00,39,11.00
2008,05,27,00,40,10.90
2008,05,27,00,41,10.90
2008,05,27,00,42,10.90
2008,05,27,00,43,10.90
2008,05,27,00,44,10.90
2008,05,27,00,45,10.90
2008,05,27,00,46,10.90
2008,05,27,00,47,10.90
2008,05,27,00,48,10.90
2008,05,27,00,49,10.90
2008,05,27,00,50,10.90
2008,05,27,00,51,10.90
2008,05,27,00,52,10.90
2008,05,27,00,53,10.90
2008,05,27,00,54,10.90
2008,05,27,00,55,10.90
2008,05,27,00,56,10.80
2008,05,27,00,57,10.80
2008,05,27,00,58,10.80
2008,05,27,00,59,10.80
2008,05,27,01,00,10.80
2008,05,27,01,01,10.80
2008,05,27,01,02,10.80
2008,05,27,01,03,10.80
2008,05,27,01,04,10.80
2008,05,27,01,05,10.80
2008,05,27,01,06,10.80
2008,05,27,01,07,10.80
2008,05,27,01,08,10.80
2008,05,27,01,09,10.80
2008,05,27,01,10,10.80
2008,05,27,01,11,10.80
2008,05,27,01,12,10.80
2008,05,27,01,13,10.70
2008,05,27,01,14,10.70
2008,05,27,01,15,10.70
2008,05,27,01,16,10.70
2008,05,27,01,17,10.70
2008,05,27,01,18,10.70
2008,05,27,01,19,10.70
2008,05,27,01,20,10.70
2008,05,27,01,21,10.70
2008,05,27,01,22,10.70
2008,05,27,01,23,10.70
2008,05,27,01,24,10.70
2008,05,27,01,25,10.70
2008,05,27,01,26,10.70
2008,05,27,01,27,10.70
2008,05,27,01,28,10.70
2008,05,27,01,29,10.70
2008,05,27,01,30,10.70
2008,05,27,01,31,10.80
2008,05,27,01,32,10.80
2008,05,27,01,33,10.80
2008,05,27,01,34,10.90
2008,05,27,01,35,10.90
2008,05,27,01,36,10.90
2008,05,27,01,37,10.90
2008,05,27,01,38,10.90
2008,05,27,01,39,10.90
2008,05,27,01,40,10.90
2008,05,27,01,41,10.90
2008,05,27,01,42,10.90
2008,05,27,01,43,10.90
2008,05,27,01,44,10.90
2008,05,27,01,45,10.90
2008,05,27,01,46,10.90
2008,05,27,01,47,10.90
2008,05,27,01,48,10.90
2008,05,27,01,49,10.90
2008,05,27,01,50,10.90
2008,05,27,01,51,10.90
2008,05,27,01,52,10.90
2008,05,27,01,53,10.90
2008,05,27,01,54,10.90
2008,05,27,01,55,10.90
2008,05,27,01,56,10.90
2008,05,27,01,57,10.90
2008,05,27,01,58,10.90
2008,05,27,01,59,10.90
2008,05,27,02,00,10.90
2008,05,27,02,01,10.90
2008,05,27,02,02,10.90
2008,05,27,02,03,10.90
2008,05,27,02,04,10.90
2008,05,27,02,05,10.90
2008,05,27,02,06,10.90
2008,05,27,02,07,10.90
2008,05,27,02,08,10.90
2008,05,27,02,09,10.90
2008,05,27,02,10,10.90
2008,05,27,02,11,10.90
2008,05,27,02,12,10.90
2008,05,27,02,13,10.90
2008,05,27,02,14,10.90
2008,05,27,02,15,10.90
2008,05,27,02,16,10.90
2008,05,27,02,17,11.10
2008,05,27,02,18,11.10
2008,05,27,02,19,11.10
2008,05,27,02,20,11.10
2008,05,27,02,21,11.10
2008,05,27,02,22,11.10
2008,05,27,02,23,11.10
2008,05,27,02,24,10.90
2008,05,27,02,25,10.90
2008,05,27,02,26,10.90
2008,05,27,02,27,10.90
2008,05,27,02,28,10.90
2008,05,27,02,29,10.90
2008,05,27,02,30,10.90
2008,05,27,02,31,10.90
2008,05,27,02,32,10.90
2008,05,27,02,33,10.90
2008,05,27,02,34,11.00
2008,05,27,02,35,11.10
2008,05,27,02,36,11.10
2008,05,27,02,37,11.10
2008,05,27,02,38,11.10
2008,05,27,02,39,11.10
2008,05,27,02,40,11.10
2008,05,27,02,41,11.10
2008,05,27,02,42,11.10
2008,05,27,02,43,11.10
2008,05,27,02,44,11.20
2008,05,27,02,45,11.20
2008,05,27,02,46,11.20
2008,05,27,02,47,11.20
2008,05,27,02,48,11.20
2008,05,27,02,49,11.20
2008,05,27,02,50,11.20
2008,05,27,02,51,11.20
2008,05,27,02,52,11.20
2008,05,27,02,53,11.20
2008,05,27,02,54,11.20
2008,05,27,02,55,11.20
2008,05,27,02,56,11.20
2008,05,27,02,57,11.20
2008,05,27,02,58,11.20
2008,05,27,02,59,11.20
2008,05,27,03,00,11.30
2008,05,27,03,01,11.30
2008,05,27,03,02,11.30
2008,05,27,03,03,11.30
2008,05,27,03,04,11.30
2008,05,27,03,05,11.30
2008,05,27,03,06,11.40
2008,05,27,03,07,11.40
2008,05,27,03,08,11.40
2008,05,27,03,09,11.40
2008,05,27,03,10,11.40
2008,05,27,03,11,11.40
2008,05,27,03,12,11.40
2008,05,27,03,13,11.40
2008,05,27,03,14,11.40
2008,05,27,03,15,11.40
2008,05,27,03,16,11.40
2008,05,27,03,17,11.40
2008,05,27,03,18,11.40
2008,05,27,03,19,11.40
2008,05,27,03,20,11.40
2008,05,27,03,21,11.40
2008,05,27,03,22,11.40
2008,05,27,03,23,11.40
2008,05,27,03,24,11.40
2008,05,27,03,25,11.40
2008,05,27,03,26,11.40
2008,05,27,03,27,11.40
2008,05,27,03,28,11.40
2008,05,27,03,29,11.40
2008,05,27,03,30,11.60
2008,05,27,03,31,11.60
2008,05,27,03,32,11.60
2008,05,27,03,33,11.60
2008,05,27,03,34,11.60
2008,05,27,03,35,11.60
2008,05,27,03,36,11.60
2008,05,27,03,37,11.60
2008,05,27,03,38,11.50
2008,05,27,03,39,11.40
2008,05,27,03,40,11.40
2008,05,27,03,41,11.40
2008,05,27,03,42,11.40
2008,05,27,03,43,11.40
2008,05,27,03,44,11.40
2008,05,27,03,45,11.40
2008,05,27,03,46,11.40
2008,05,27,03,47,11.40
2008,05,27,03,48,11.40
2008,05,27,03,49,11.40
2008,05,27,03,50,11.40
2008,05,27,03,51,11.40
2008,05,27,03,52,11.40
2008,05,27,03,53,11.40
2008,05,27,03,54,11.40
2008,05,27,03,55,11.40
2008,05,27,03,56,11.40
2008,05,27,03,57,11.40
2008,05,27,03,58,11.40
2008,05,27,03,59,11.40
2008,05,27,04,00,11.40
2008,05,27,04,01,11.40
2008,05,27,04,02,11.40
2008,05,27,04,03,11.40
2008,05,27,04,04,11.40
2008,05,27,04,05,11.40
2008,05,27,04,06,11.40
2008,05,27,04,07,11.40
2008,05,27,04,08,11.40
2008,05,27,04,09,11.40
2008,05,27,04,10,11.40
2008,05,27,04,11,11.40
2008,05,27,04,12,11.40
2008,05,27,04,13,11.40
2008,05,27,04,14,11.40
2008,05,27,04,15,11.30
2008,05,27,04,16,11.30
2008,05,27,04,17,11.30
2008,05,27,04,18,11.30
2008,05,27,04,19,11.30
2008,05,27,04,20,11.30
2008,05,27,04,21,11.30
2008,05,27,04,22,11.30
2008,05,27,04,23,11.30
2008,05,27,04,24,11.30
2008,05,27,04,25,11.30
2008,05,27,04,26,11.30
2008,05,27,04,27,11.30
2008,05,27,04,28,11.30
2008,05,27,04,29,11.30
2008,05,27,04,30,11.30
2008,05,27,04,31,11.30
2008,05,27,04,32,11.30
2008,05,27,04,33,11.30
2008,05,27,04,34,11.30
2008,05,27,04,35,11.30
2008,05,27,04,36,11.30
2008,05,27,04,37,11.30
2008,05,27,04,38,11.30
2008,05,27,04,39,11.30
2008,05,27,04,40,11.30
2008,05,27,04,41,11.20
2008,05,27,04,42,11.20
2008,05,27,04,43,11.20
2008,05,27,04,44,11.20
2008,05,27,04,45,11.20
2008,05,27,04,46,11.20
2008,05,27,04,47,11.20
2008,05,27,04,48,11.20
2008,05,27,04,49,11.20
2008,05,27,04,50,11.20
2008,05,27,04,51,11.20
2008,05,27,04,52,11.20
2008,05,27,04,53,11.20
2008,05,27,04,54,11.20
2008,05,27,04,55,11.20
2008,05,27,04,56,11.20
2008,05,27,04,57,11.20
2008,05,27,04,58,11.20
2008,05,27,04,59,11.20
2008,05,27,05,00,11.20
2008,05,27,05,01,11.20
2008,05,27,05,02,11.20
2008,05,27,05,03,11.20
2008,05,27,05,04,11.20
2008,05,27,05,05,11.20
2008,05,27,05,06,11.20
2008,05,27,05,07,11.20
2008,05,27,05,08,11.20
2008,05,27,05,09,11.20
2008,05,27,05,10,11.20
2008,05,27,05,11,11.20
2008,05,27,05,12,11.20
2008,05,27,05,13,11.20
2008,05,27,05,14,11.20
2008,05,27,05,16,11.20
2008,05,27,05,17,11.20
2008,05,27,05,18,11.20
2008,05,27,05,19,11.20
2008,05,27,05,20,11.20
2008,05,27,05,21,11.20
2008,05,27,05,22,11.20
2008,05,27,05,23,11.20
2008,05,27,05,24,11.20
2008,05,27,05,25,11.20
2008,05,27,05,26,11.20
2008,05,27,05,27,11.20
2008,05,27,05,28,11.20
2008,05,27,05,29,11.20
2008,05,27,05,30,11.20
2008,05,27,05,31,11.20
2008,05,27,05,32,11.20
2008,05,27,05,33,11.20
2008,05,27,05,34,11.30
2008,05,27,05,35,11.30
2008,05,27,05,36,11.30
2008,05,27,05,37,11.30
2008,05,27,05,38,11.30
2008,05,27,05,39,11.30
2008,05,27,05,40,11.30
2008,05,27,05,41,11.30
2008,05,27,05,42,11.30
2008,05,27,05,43,11.30
2008,05,27,05,44,11.30
2008,05,27,05,45,11.30
2008,05,27,05,46,11.30
2008,05,27,05,47,11.30
2008,05,27,05,48,11.30
2008,05,27,05,49,11.30
2008,05,27,05,50,11.30
2008,05,27,05,51,11.30
2008,05,27,05,52,11.30
2008,05,27,05,53,11.40
2008,05,27,05,55,11.40
2008,05,27,05,56,11.40
2008,05,27,05,57,11.40
2008,05,27,05,58,11.40
2008,05,27,05,59,11.40
2008,05,27,06,00,11.40
2008,05,27,06,01,11.40
2008,05,27,06,02,11.40
2008,05,27,06,03,11.40
2008,05,27,06,04,11.40
2008,05,27,06,05,11.40
2008,05,27,06,06,11.40
2008,05,27,06,07,11.40
2008,05,27,06,08,11.40
2008,05,27,06,09,11.40
2008,05,27,06,10,11.40
2008,05,27,06,11,11.40
2008,05,27,06,12,11.50
2008,05,27,06,13,11.60
2008,05,27,06,14,11.60
2008,05,27,06,15,11.60
2008,05,27,06,16,11.60
2008,05,27,06,17,11.60
2008,05,27,06,18,11.60
2008,05,27,06,19,11.60
2008,05,27,06,20,11.60
2008,05,27,06,21,11.60
2008,05,27,06,22,11.60
2008,05,27,06,23,11.60
2008,05,27,06,24,11.70
2008,05,27,06,25,11.70
2008,05,27,06,26,11.70
2008,05,27,06,27,11.70
2008,05,27,06,28,11.80
2008,05,27,06,29,11.80
2008,05,27,06,30,11.80
2008,05,27,06,31,11.80
2008,05,27,06,32,11.80
2008,05,27,06,33,11.80
2008,05,27,06,34,11.80
2008,05,27,06,35,11.90
2008,05,27,06,38,11.90
2008,05,27,06,40,11.90
2008,05,27,06,41,12.00
2008,05,27,06,42,12.00
2008,05,27,06,43,12.00
2008,05,27,06,44,12.00
2008,05,27,06,45,12.00
2008,05,27,06,46,12.00
2008,05,27,06,48,12.10
2008,05,27,06,49,12.10
2008,05,27,06,52,12.10
2008,05,27,06,54,12.10
2008,05,27,07,15,12.10
2008,05,27,07,16,12.10
2008,05,27,07,39,12.20
2008,05,27,10,50,15.20
2008,05,27,10,51,15.10
2008,05,27,10,52,15.20
2008,05,27,10,53,15.20
2008,05,27,10,54,15.20
2008,05,27,10,55,15.10
2008,05,27,10,56,15.10
2008,05,27,10,57,15.10
2008,05,27,10,58,15.10
2008,05,27,10,59,15.10
2008,05,27,11,00,15.10
2008,05,27,11,01,15.10
2008,05,27,11,02,15.00
2008,05,27,11,03,15.00
2008,05,27,11,04,15.00
2008,05,27,11,05,14.90
2008,05,27,11,06,14.90
2008,05,27,11,07,14.90
2008,05,27,11,08,14.90
2008,05,27,11,09,14.90
2008,05,27,11,10,14.80
2008,05,27,11,11,14.80
2008,05,27,11,12,14.80
2008,05,27,11,13,14.80
2008,05,27,11,14,14.80
2008,05,27,11,15,14.80
2008,05,27,11,16,14.80
2008,05,27,11,17,14.80
2008,05,27,11,18,14.80
2008,05,27,11,19,14.80
2008,05,27,11,20,14.80
2008,05,27,11,21,14.80
2008,05,27,11,22,14.80
2008,05,27,11,23,14.80
2008,05,27,11,24,14.80
2008,05,27,11,25,14.80
2008,05,27,11,26,14.80
2008,05,27,11,27,14.80
2008,05,27,11,28,14.80
2008,05,27,11,29,14.80
2008,05,27,11,30,14.80
2008,05,27,11,31,14.80
2008,05,27,11,32,14.80
2008,05,27,11,35,14.90
2008,05,27,11,37,15.00
2008,05,27,11,38,15.10
2008,05,27,11,39,15.10
2008,05,27,11,40,15.10
2008,05,27,11,41,15.10
2008,05,27,11,42,15.20
2008,05,27,11,43,15.20
2008,05,27,11,44,15.20
2008,05,27,11,45,15.30
2008,05,27,11,46,15.30
2008,05,27,11,47,15.30
2008,05,27,11,50,15.40
2008,05,27,11,51,15.40
2008,05,27,11,53,15.40
2008,05,27,11,58,15.50
2008,05,27,12,01,15.60
